contact:dominique.lefevre@mio.osupytheas.fr, maurice.libes@osupytheas.fr, didier.mallarino@osupytheas.fr
Project:EMSO http://www.emso-fr.org/EMSO-France
Depth: 2436.0 m
Title:EMSO Ligure Ouest : Data MII capteur CSTAR
DateTime,Latitude,Longitude,Instrument_Serial,Reference_Counts,Signal_Counts,Corrected_Signal_raw_counts,Calculated_Beam_c_inverse_meters,Internal_thermistor_counts
DateTime,Latitude,Longitude,Instrument_Serial,Reference_Counts,Signal_Counts,Corrected_Signal_raw_counts,Calculated_Beam_c_inverse_meters,Internal_thermistor_counts
2021-06-02T00:02:48,42.805,6.029,CST-1368DR,5530,7716,14988,0.164,551
2021-06-02T00:05:49,42.805,6.029,CST-1368DR,5530,7717,14989,0.164,551
2021-06-02T00:08:51,42.805,6.029,CST-1368DR,5530,7717,14990,0.164,551
2021-06-02T00:11:53,42.805,6.029,CST-1368DR,5530,7716,14988,0.164,551
2021-06-02T00:14:54,42.805,6.029,CST-1368DR,5530,7717,14989,0.164,551
2021-06-02T00:17:56,42.805,6.029,CST-1368DR,5530,7717,14989,0.164,551
2021-06-02T00:20:57,42.805,6.029,CST-1368DR,5530,7716,14988,0.164,551
2021-06-02T00:23:59,42.805,6.029,CST-1368DR,5530,7717,14989,0.164,551
2021-06-02T00:27:01,42.805,6.029,CST-1368DR,5530,7718,14991,0.163,551
2021-06-02T00:30:02,42.805,6.029,CST-1368DR,5530,7717,14990,0.164,551
2021-06-02T00:33:04,42.805,6.029,CST-1368DR,5530,7717,14989,0.164,550
2021-06-02T00:36:05,42.805,6.029,CST-1368DR,5530,7715,14986,0.165,550
2021-06-02T00:39:07,42.805,6.029,CST-1368DR,5530,7717,14990,0.164,551
2021-06-02T00:42:08,42.805,6.029,CST-1368DR,5530,7716,14987,0.164,551
2021-06-02T00:45:10,42.805,6.029,CST-1368DR,5530,7717,14989,0.164,551
2021-06-02T00:48:12,42.805,6.029,CST-1368DR,5530,7717,14990,0.164,551
2021-06-02T00:51:13,42.805,6.029,CST-1368DR,5530,7717,14989,0.164,551
2021-06-02T00:54:15,42.805,6.029,CST-1368DR,5530,7716,14988,0.164,551
2021-06-02T00:57:16,42.805,6.029,CST-1368DR,5530,7718,14991,0.163,551
2021-06-02T01:00:18,42.805,6.029,CST-1368DR,5530,7718,14991,0.163,551
2021-06-02T01:03:19,42.805,6.029,CST-1368DR,5530,7718,14991,0.163,551
2021-06-02T01:06:21,42.805,6.029,CST-1368DR,5530,7717,14990,0.164,551
2021-06-02T01:09:23,42.805,6.029,CST-1368DR,5530,7717,14990,0.164,551
2021-06-02T01:12:24,42.805,6.029,CST-1368DR,5530,7717,14990,0.164,551
2021-06-02T01:15:26,42.805,6.029,CST-1368DR,5530,7717,14990,0.164,551
2021-06-02T01:18:27,42.805,6.029,CST-1368DR,5530,7717,14990,0.164,551
2021-06-02T01:21:29,42.805,6.029,CST-1368DR,5530,7716,14988,0.164,551
2021-06-02T01:24:31,42.805,6.029,CST-1368DR,5530,7718,14991,0.163,550
2021-06-02T01:27:32,42.805,6.029,CST-1368DR,5530,7716,14988,0.164,551
2021-06-02T01:30:34,42.805,6.029,CST-1368DR,5530,7715,14985,0.165,551
2021-06-02T01:33:35,42.805,6.029,CST-1368DR,5530,7715,14986,0.165,551
2021-06-02T01:36:37,42.805,6.029,CST-1368DR,5530,7717,14989,0.164,551
2021-06-02T01:39:38,42.805,6.029,CST-1368DR,5530,7717,14989,0.164,551
2021-06-02T01:42:40,42.805,6.029,CST-1368DR,5530,7715,14986,0.165,551
2021-06-02T01:45:42,42.805,6.029,CST-1368DR,5530,7717,14989,0.164,550
2021-06-02T01:48:43,42.805,6.029,CST-1368DR,5530,7717,14990,0.164,551
2021-06-02T01:51:45,42.805,6.029,CST-1368DR,5530,7717,14989,0.164,551
2021-06-02T01:54:46,42.805,6.029,CST-1368DR,5530,7717,14990,0.164,551
2021-06-02T01:57:48,42.805,6.029,CST-1368DR,5530,7717,14989,0.164,551
2021-06-02T02:00:50,42.805,6.029,CST-1368DR,5530,7718,14991,0.163,551
2021-06-02T02:03:51,42.805,6.029,CST-1368DR,5530,7717,14990,0.164,551
2021-06-02T02:06:53,42.805,6.029,CST-1368DR,5530,7717,14990,0.164,551
2021-06-02T02:09:54,42.805,6.029,CST-1368DR,5530,7717,14990,0.164,551
2021-06-02T02:12:56,42.805,6.029,CST-1368DR,5530,7717,14989,0.164,551
2021-06-02T02:15:57,42.805,6.029,CST-1368DR,5530,7717,14990,0.164,551
2021-06-02T02:18:59,42.805,6.029,CST-1368DR,5530,7717,14989,0.164,551
2021-06-02T02:22:01,42.805,6.029,CST-1368DR,5530,7716,14988,0.164,550
2021-06-02T02:25:02,42.805,6.029,CST-1368DR,5530,7716,14988,0.164,551
2021-06-02T02:28:04,42.805,6.029,CST-1368DR,5530,7714,14984,0.165,551
2021-06-02T02:31:05,42.805,6.029,CST-1368DR,5530,7715,14986,0.165,551
2021-06-02T02:34:07,42.805,6.029,CST-1368DR,5530,7716,14988,0.164,551
2021-06-02T02:37:08,42.805,6.029,CST-1368DR,5530,7716,14987,0.164,551
2021-06-02T02:40:10,42.805,6.029,CST-1368DR,5530,7715,14986,0.165,551
2021-06-02T02:43:12,42.805,6.029,CST-1368DR,5530,7717,14989,0.164,551
2021-06-02T02:46:13,42.805,6.029,CST-1368DR,5530,7718,14991,0.163,550
2021-06-02T02:49:15,42.805,6.029,CST-1368DR,5530,7716,14987,0.164,551
2021-06-02T02:52:16,42.805,6.029,CST-1368DR,5530,7718,14991,0.163,551
2021-06-02T02:55:18,42.805,6.029,CST-1368DR,5530,7717,14990,0.164,551
2021-06-02T02:58:20,42.805,6.029,CST-1368DR,5530,7717,14990,0.164,551
2021-06-02T03:01:21,42.805,6.029,CST-1368DR,5530,7717,14990,0.164,551
2021-06-02T03:04:23,42.805,6.029,CST-1368DR,5531,7717,14987,0.164,551
2021-06-02T03:07:24,42.805,6.029,CST-1368DR,5531,7718,14988,0.164,551
2021-06-02T03:10:26,42.805,6.029,CST-1368DR,5530,7718,14991,0.163,551
2021-06-02T03:13:27,42.805,6.029,CST-1368DR,5531,7716,14985,0.165,551
2021-06-02T03:16:29,42.805,6.029,CST-1368DR,5531,7718,14988,0.164,551
2021-06-02T03:19:31,42.805,6.029,CST-1368DR,5531,7718,14988,0.164,551
2021-06-02T03:22:32,42.805,6.029,CST-1368DR,5531,7717,14987,0.164,551
2021-06-02T03:25:34,42.805,6.029,CST-1368DR,5531,7718,14988,0.164,551
2021-06-02T03:28:35,42.805,6.029,CST-1368DR,5531,7718,14988,0.164,551
2021-06-02T03:31:37,42.805,6.029,CST-1368DR,5531,7718,14988,0.164,551
2021-06-02T03:34:39,42.805,6.029,CST-1368DR,5531,7719,14990,0.164,551
2021-06-02T03:37:40,42.805,6.029,CST-1368DR,5531,7717,14986,0.165,551
2021-06-02T03:40:42,42.805,6.029,CST-1368DR,5531,7717,14987,0.164,551
2021-06-02T03:43:43,42.805,6.029,CST-1368DR,5531,7718,14988,0.164,551
2021-06-02T03:46:45,42.805,6.029,CST-1368DR,5531,7718,14988,0.164,551
2021-06-02T03:49:46,42.805,6.029,CST-1368DR,5531,7718,14988,0.164,551
2021-06-02T03:52:48,42.805,6.029,CST-1368DR,5531,7718,14988,0.164,551
2021-06-02T03:55:50,42.805,6.029,CST-1368DR,5531,7718,14988,0.164,551
2021-06-02T03:58:51,42.805,6.029,CST-1368DR,5531,7719,14990,0.164,551
2021-06-02T04:01:53,42.805,6.029,CST-1368DR,5531,7718,14988,0.164,551
2021-06-02T04:04:54,42.805,6.029,CST-1368DR,5531,7719,14990,0.164,551
2021-06-02T04:07:56,42.805,6.029,CST-1368DR,5531,7719,14990,0.164,551
2021-06-02T04:10:57,42.805,6.029,CST-1368DR,5531,7718,14989,0.164,551
2021-06-02T04:13:59,42.805,6.029,CST-1368DR,5531,7717,14987,0.164,551
2021-06-02T04:17:01,42.805,6.029,CST-1368DR,5531,7717,14987,0.164,551
2021-06-02T04:20:02,42.805,6.029,CST-1368DR,5531,7717,14986,0.165,551
2021-06-02T04:23:04,42.805,6.029,CST-1368DR,5531,7716,14986,0.165,551
2021-06-02T04:26:05,42.805,6.029,CST-1368DR,5531,7704,14961,0.171,551
2021-06-02T04:29:07,42.805,6.029,CST-1368DR,5531,7710,14972,0.168,551
2021-06-02T04:32:09,42.805,6.029,CST-1368DR,5531,7707,14967,0.170,551
2021-06-02T04:35:10,42.805,6.029,CST-1368DR,5531,7705,14964,0.171,551
2021-06-02T04:38:12,42.805,6.029,CST-1368DR,5531,7700,14954,0.173,551
2021-06-02T04:41:13,42.805,6.029,CST-1368DR,5531,7710,14974,0.168,551
2021-06-02T04:44:15,42.805,6.029,CST-1368DR,5531,7717,14986,0.165,551
2021-06-02T04:47:16,42.805,6.029,CST-1368DR,5531,7717,14986,0.165,551
2021-06-02T04:50:18,42.805,6.029,CST-1368DR,5531,7719,14991,0.163,551
2021-06-02T04:53:20,42.805,6.029,CST-1368DR,5531,7718,14988,0.164,551
2021-06-02T04:56:21,42.805,6.029,CST-1368DR,5531,7718,14988,0.164,551
2021-06-02T04:59:23,42.805,6.029,CST-1368DR,5531,7718,14989,0.164,551
2021-06-02T05:02:24,42.805,6.029,CST-1368DR,5531,7716,14986,0.165,551
2021-06-02T05:05:26,42.805,6.029,CST-1368DR,5531,7717,14987,0.164,550
2021-06-02T05:08:27,42.805,6.029,CST-1368DR,5531,7718,14989,0.164,551
2021-06-02T05:11:29,42.805,6.029,CST-1368DR,5531,7718,14988,0.164,551
2021-06-02T05:14:31,42.805,6.029,CST-1368DR,5531,7718,14988,0.164,551
2021-06-02T05:17:32,42.805,6.029,CST-1368DR,5531,7719,14990,0.164,551
2021-06-02T05:20:34,42.805,6.029,CST-1368DR,5531,7719,14990,0.164,551
2021-06-02T05:23:35,42.805,6.029,CST-1368DR,5531,7716,14985,0.165,551
2021-06-02T05:26:37,42.805,6.029,CST-1368DR,5531,7717,14987,0.164,551
2021-06-02T05:29:39,42.805,6.029,CST-1368DR,5531,7719,14990,0.164,551
2021-06-02T05:32:40,42.805,6.029,CST-1368DR,5531,7717,14987,0.164,551
2021-06-02T05:35:42,42.805,6.029,CST-1368DR,5531,7718,14989,0.164,551
2021-06-02T05:38:43,42.805,6.029,CST-1368DR,5531,7719,14990,0.164,550
2021-06-02T05:41:45,42.805,6.029,CST-1368DR,5531,7719,14990,0.164,551
2021-06-02T05:44:46,42.805,6.029,CST-1368DR,5531,7719,14990,0.164,551
2021-06-02T05:47:48,42.805,6.029,CST-1368DR,5531,7717,14987,0.164,551
2021-06-02T05:50:50,42.805,6.029,CST-1368DR,5531,7719,14990,0.164,551
2021-06-02T05:53:51,42.805,6.029,CST-1368DR,5531,7718,14988,0.164,551
2021-06-02T05:56:53,42.805,6.029,CST-1368DR,5531,7719,14991,0.163,551
2021-06-02T05:59:54,42.805,6.029,CST-1368DR,5531,7717,14987,0.164,551
2021-06-02T06:02:56,42.805,6.029,CST-1368DR,5531,7717,14987,0.164,551
2021-06-02T06:05:58,42.805,6.029,CST-1368DR,5531,7717,14986,0.165,551
2021-06-02T06:08:59,42.805,6.029,CST-1368DR,5531,7718,14989,0.164,551
2021-06-02T06:12:01,42.805,6.029,CST-1368DR,5531,7719,14990,0.164,551
2021-06-02T06:15:02,42.805,6.029,CST-1368DR,5531,7713,14979,0.167,551
2021-06-02T06:18:04,42.805,6.029,CST-1368DR,5531,7715,14983,0.166,551
2021-06-02T06:21:05,42.805,6.029,CST-1368DR,5531,7718,14988,0.164,551
2021-06-02T06:24:07,42.805,6.029,CST-1368DR,5532,7718,14986,0.165,551
2021-06-02T06:27:09,42.805,6.029,CST-1368DR,5532,7717,14984,0.165,551
2021-06-02T06:30:10,42.805,6.029,CST-1368DR,5532,7716,14983,0.166,551
2021-06-02T06:33:12,42.805,6.029,CST-1368DR,5532,7718,14985,0.165,551
2021-06-02T06:36:13,42.805,6.029,CST-1368DR,5532,7718,14987,0.164,551
2021-06-02T06:39:15,42.805,6.029,CST-1368DR,5532,7719,14988,0.164,551
2021-06-02T06:42:16,42.805,6.029,CST-1368DR,5532,7717,14985,0.165,551
2021-06-02T06:45:18,42.805,6.029,CST-1368DR,5532,7719,14988,0.164,551
2021-06-02T06:48:20,42.805,6.029,CST-1368DR,5532,7719,14988,0.164,551
2021-06-02T06:51:21,42.805,6.029,CST-1368DR,5532,7719,14988,0.164,551
2021-06-02T06:54:23,42.805,6.029,CST-1368DR,5532,7718,14986,0.165,551
2021-06-02T06:57:24,42.805,6.029,CST-1368DR,5532,7718,14986,0.165,551
2021-06-02T07:00:26,42.805,6.029,CST-1368DR,5532,7718,14986,0.165,551
2021-06-02T07:03:28,42.805,6.029,CST-1368DR,5532,7716,14982,0.166,551
2021-06-02T07:06:29,42.805,6.029,CST-1368DR,5532,7718,14986,0.165,551
2021-06-02T07:09:31,42.805,6.029,CST-1368DR,5532,7718,14987,0.164,551
2021-06-02T07:12:32,42.805,6.029,CST-1368DR,5532,7716,14983,0.166,551
2021-06-02T07:15:34,42.805,6.029,CST-1368DR,5532,7719,14988,0.164,551
2021-06-02T07:18:35,42.805,6.029,CST-1368DR,5532,7719,14988,0.164,551
2021-06-02T07:21:37,42.805,6.029,CST-1368DR,5532,7719,14987,0.164,550
2021-06-02T07:24:39,42.805,6.029,CST-1368DR,5532,7717,14984,0.165,551
2021-06-02T07:27:40,42.805,6.029,CST-1368DR,5532,7719,14988,0.164,551
2021-06-02T07:30:42,42.805,6.029,CST-1368DR,5532,7718,14987,0.164,551
2021-06-02T07:33:43,42.805,6.029,CST-1368DR,5532,7718,14987,0.164,551
2021-06-02T07:36:45,42.805,6.029,CST-1368DR,5532,7718,14986,0.165,551
2021-06-02T07:39:47,42.805,6.029,CST-1368DR,5532,7719,14989,0.164,551
2021-06-02T07:42:48,42.805,6.029,CST-1368DR,5532,7719,14989,0.164,551
2021-06-02T07:45:50,42.805,6.029,CST-1368DR,5532,7719,14987,0.164,551
2021-06-02T07:48:51,42.805,6.029,CST-1368DR,5532,7717,14984,0.165,551
2021-06-02T07:51:53,42.805,6.029,CST-1368DR,5532,7720,14989,0.164,551
2021-06-02T07:54:54,42.805,6.029,CST-1368DR,5532,7718,14985,0.165,551
2021-06-02T07:57:56,42.805,6.029,CST-1368DR,5532,7719,14988,0.164,551
2021-06-02T08:00:58,42.805,6.029,CST-1368DR,5532,7715,14980,0.166,551
2021-06-02T08:03:59,42.805,6.029,CST-1368DR,5532,7719,14989,0.164,551
2021-06-02T08:07:01,42.805,6.029,CST-1368DR,5532,7719,14988,0.164,551
2021-06-02T08:10:02,42.805,6.029,CST-1368DR,5532,7718,14987,0.164,551
2021-06-02T08:13:04,42.805,6.029,CST-1368DR,5532,7719,14987,0.164,551
2021-06-02T08:16:05,42.805,6.029,CST-1368DR,5532,7719,14987,0.164,551
2021-06-02T08:19:07,42.805,6.029,CST-1368DR,5532,7718,14987,0.164,551
2021-06-02T08:22:09,42.805,6.029,CST-1368DR,5532,7719,14988,0.164,551
2021-06-02T08:25:10,42.805,6.029,CST-1368DR,5532,7719,14987,0.164,551
2021-06-02T08:28:12,42.805,6.029,CST-1368DR,5532,7719,14988,0.164,551
2021-06-02T08:31:13,42.805,6.029,CST-1368DR,5532,7718,14986,0.165,551
2021-06-02T08:34:15,42.805,6.029,CST-1368DR,5532,7709,14969,0.169,551
2021-06-02T08:37:17,42.805,6.029,CST-1368DR,5532,7717,14984,0.165,551
2021-06-02T08:40:18,42.805,6.029,CST-1368DR,5532,7718,14985,0.165,551
2021-06-02T08:43:20,42.805,6.029,CST-1368DR,5532,7718,14987,0.164,551
2021-06-02T08:46:21,42.805,6.029,CST-1368DR,5532,7718,14985,0.165,551
2021-06-02T08:49:23,42.805,6.029,CST-1368DR,5532,7718,14986,0.165,551
2021-06-02T08:52:24,42.805,6.029,CST-1368DR,5532,7719,14988,0.164,551
2021-06-02T08:55:26,42.805,6.029,CST-1368DR,5532,7719,14988,0.164,551
2021-06-02T08:58:28,42.805,6.029,CST-1368DR,5532,7719,14988,0.164,551
2021-06-02T09:01:29,42.805,6.029,CST-1368DR,5532,7718,14987,0.164,551
2021-06-02T09:04:31,42.805,6.029,CST-1368DR,5532,7718,14987,0.164,551
2021-06-02T09:07:32,42.805,6.029,CST-1368DR,5532,7718,14987,0.164,551
2021-06-02T09:10:34,42.805,6.029,CST-1368DR,5532,7720,14989,0.164,551
2021-06-02T09:13:36,42.805,6.029,CST-1368DR,5532,7717,14983,0.166,551
2021-06-02T09:16:37,42.805,6.029,CST-1368DR,5532,7719,14989,0.164,550
2021-06-02T09:19:39,42.805,6.029,CST-1368DR,5532,7718,14987,0.164,551
2021-06-02T09:22:40,42.805,6.029,CST-1368DR,5532,7718,14987,0.164,551
2021-06-02T09:25:42,42.805,6.029,CST-1368DR,5532,7718,14985,0.165,551
2021-06-02T09:28:43,42.805,6.029,CST-1368DR,5532,7716,14982,0.166,551
2021-06-02T09:31:45,42.805,6.029,CST-1368DR,5532,7719,14987,0.164,551
2021-06-02T09:34:47,42.805,6.029,CST-1368DR,5532,7717,14984,0.165,551
2021-06-02T09:37:48,42.805,6.029,CST-1368DR,5532,7720,14990,0.164,551
2021-06-02T09:40:50,42.805,6.029,CST-1368DR,5532,7719,14989,0.164,551
2021-06-02T09:43:51,42.805,6.029,CST-1368DR,5532,7719,14989,0.164,551
2021-06-02T09:46:53,42.805,6.029,CST-1368DR,5532,7719,14988,0.164,551
2021-06-02T09:49:54,42.805,6.029,CST-1368DR,5532,7719,14987,0.164,551
2021-06-02T09:52:56,42.805,6.029,CST-1368DR,5532,7719,14987,0.164,551
2021-06-02T09:55:58,42.805,6.029,CST-1368DR,5532,7717,14985,0.165,551
2021-06-02T09:58:59,42.805,6.029,CST-1368DR,5532,7719,14988,0.164,551
2021-06-02T10:02:01,42.805,6.029,CST-1368DR,5532,7719,14988,0.164,551
2021-06-02T10:05:02,42.805,6.029,CST-1368DR,5532,7719,14989,0.164,551
2021-06-02T10:08:04,42.805,6.029,CST-1368DR,5532,7714,14979,0.167,551
2021-06-02T10:11:06,42.805,6.029,CST-1368DR,5532,7719,14987,0.164,551
2021-06-02T10:14:07,42.805,6.029,CST-1368DR,5532,7720,14990,0.164,551
2021-06-02T10:17:09,42.805,6.029,CST-1368DR,5532,7719,14989,0.164,551
2021-06-02T10:20:10,42.805,6.029,CST-1368DR,5532,7718,14987,0.164,551
2021-06-02T10:23:12,42.805,6.029,CST-1368DR,5532,7714,14978,0.167,551
2021-06-02T10:26:13,42.805,6.029,CST-1368DR,5532,7720,14990,0.164,551
2021-06-02T10:29:15,42.805,6.029,CST-1368DR,5532,7717,14984,0.165,551
2021-06-02T10:32:17,42.805,6.029,CST-1368DR,5532,7718,14985,0.165,551
2021-06-02T10:35:18,42.805,6.029,CST-1368DR,5532,7718,14987,0.164,551
2021-06-02T10:38:20,42.805,6.029,CST-1368DR,5532,7717,14985,0.165,551
2021-06-02T10:41:21,42.805,6.029,CST-1368DR,5532,7718,14987,0.164,550
2021-06-02T10:44:23,42.805,6.029,CST-1368DR,5532,7719,14988,0.164,550
2021-06-02T10:47:24,42.805,6.029,CST-1368DR,5532,7719,14988,0.164,551
2021-06-02T10:50:26,42.805,6.029,CST-1368DR,5532,7720,14989,0.164,551
2021-06-02T10:53:28,42.805,6.029,CST-1368DR,5532,7719,14988,0.164,551
2021-06-02T10:56:29,42.805,6.029,CST-1368DR,5532,7718,14987,0.164,551
2021-06-02T10:59:31,42.805,6.029,CST-1368DR,5532,7719,14988,0.164,551
2021-06-02T11:02:32,42.805,6.029,CST-1368DR,5532,7719,14987,0.164,551
2021-06-02T11:05:34,42.805,6.029,CST-1368DR,5532,7720,14990,0.164,551
2021-06-02T11:08:36,42.805,6.029,CST-1368DR,5532,7714,14979,0.167,551
2021-06-02T11:11:37,42.805,6.029,CST-1368DR,5533,7719,14985,0.165,551
2021-06-02T11:14:39,42.805,6.029,CST-1368DR,5532,7718,14985,0.165,551
2021-06-02T11:17:40,42.805,6.029,CST-1368DR,5533,7719,14985,0.165,551
2021-06-02T11:20:42,42.805,6.029,CST-1368DR,5532,7716,14982,0.166,550
2021-06-02T11:23:43,42.805,6.029,CST-1368DR,5533,7717,14982,0.166,551
2021-06-02T11:26:45,42.805,6.029,CST-1368DR,5533,7720,14987,0.164,551
2021-06-02T11:29:47,42.805,6.029,CST-1368DR,5533,7719,14985,0.165,551
2021-06-02T11:32:48,42.805,6.029,CST-1368DR,5533,7719,14986,0.165,551
2021-06-02T11:35:50,42.805,6.029,CST-1368DR,5533,7720,14987,0.164,551
2021-06-02T11:38:51,42.805,6.029,CST-1368DR,5533,7718,14983,0.166,551
2021-06-02T11:41:53,42.805,6.029,CST-1368DR,5533,7719,14986,0.165,551
2021-06-02T11:44:54,42.805,6.029,CST-1368DR,5533,7720,14987,0.164,551
2021-06-02T11:47:56,42.805,6.029,CST-1368DR,5533,7716,14980,0.166,551
2021-06-02T11:50:58,42.805,6.029,CST-1368DR,5533,7718,14984,0.165,551
2021-06-02T11:53:59,42.805,6.029,CST-1368DR,5533,7719,14986,0.165,551
2021-06-02T11:57:01,42.805,6.029,CST-1368DR,5533,7718,14984,0.165,551
2021-06-02T12:00:02,42.805,6.029,CST-1368DR,5533,7718,14984,0.165,551
2021-06-02T12:03:04,42.805,6.029,CST-1368DR,5533,7718,14983,0.166,551
2021-06-02T12:06:06,42.805,6.029,CST-1368DR,5533,7719,14985,0.165,551
2021-06-02T12:09:07,42.805,6.029,CST-1368DR,5533,7719,14986,0.165,551
2021-06-02T12:12:09,42.805,6.029,CST-1368DR,5533,7718,14984,0.165,551
2021-06-02T12:15:10,42.805,6.029,CST-1368DR,5533,7718,14983,0.166,551
2021-06-02T12:18:12,42.805,6.029,CST-1368DR,5533,7719,14986,0.165,551
2021-06-02T12:21:13,42.805,6.029,CST-1368DR,5533,7720,14987,0.164,551
2021-06-02T12:24:15,42.805,6.029,CST-1368DR,5533,7720,14988,0.164,551
2021-06-02T12:27:17,42.805,6.029,CST-1368DR,5533,7719,14985,0.165,551
2021-06-02T12:30:18,42.805,6.029,CST-1368DR,5533,7717,14982,0.166,551
2021-06-02T12:33:20,42.805,6.029,CST-1368DR,5533,7717,14982,0.166,551
2021-06-02T12:36:21,42.805,6.029,CST-1368DR,5533,7720,14988,0.164,551
2021-06-02T12:39:23,42.805,6.029,CST-1368DR,5533,7716,14980,0.166,551
2021-06-02T12:42:25,42.805,6.029,CST-1368DR,5533,7720,14987,0.164,551
2021-06-02T12:45:26,42.805,6.029,CST-1368DR,5533,7718,14983,0.166,550
2021-06-02T12:48:28,42.805,6.029,CST-1368DR,5533,7719,14985,0.165,551
2021-06-02T12:51:29,42.805,6.029,CST-1368DR,5533,7719,14985,0.165,551
2021-06-02T12:54:31,42.805,6.029,CST-1368DR,5533,7719,14986,0.165,551
2021-06-02T12:57:32,42.805,6.029,CST-1368DR,5533,7720,14987,0.164,551
2021-06-02T13:00:34,42.805,6.029,CST-1368DR,5533,7718,14984,0.165,551
2021-06-02T13:03:36,42.805,6.029,CST-1368DR,5533,7720,14987,0.164,551
2021-06-02T13:06:37,42.805,6.029,CST-1368DR,5533,7718,14984,0.165,551
2021-06-02T13:09:39,42.805,6.029,CST-1368DR,5533,7718,14984,0.165,551
2021-06-02T13:12:40,42.805,6.029,CST-1368DR,5533,7719,14985,0.165,551
2021-06-02T13:15:42,42.805,6.029,CST-1368DR,5533,7717,14981,0.166,551
2021-06-02T13:18:43,42.805,6.029,CST-1368DR,5533,7718,14983,0.166,551
2021-06-02T13:21:45,42.805,6.029,CST-1368DR,5533,7719,14986,0.165,551
2021-06-02T13:24:47,42.805,6.029,CST-1368DR,5533,7719,14986,0.165,551
2021-06-02T13:27:48,42.805,6.029,CST-1368DR,5533,7717,14981,0.166,551
2021-06-02T13:30:50,42.805,6.029,CST-1368DR,5533,7718,14983,0.166,551
2021-06-02T13:33:51,42.805,6.029,CST-1368DR,5533,7718,14983,0.166,551
2021-06-02T13:36:53,42.805,6.029,CST-1368DR,5533,7719,14986,0.165,550
2021-06-02T13:39:55,42.805,6.029,CST-1368DR,5533,7720,14987,0.164,551
2021-06-02T13:42:56,42.805,6.029,CST-1368DR,5533,7719,14986,0.165,551
2021-06-02T13:45:58,42.805,6.029,CST-1368DR,5533,7720,14987,0.164,551
2021-06-02T13:48:59,42.805,6.029,CST-1368DR,5533,7718,14983,0.166,551
2021-06-02T13:52:01,42.805,6.029,CST-1368DR,5533,7719,14986,0.165,551
2021-06-02T13:55:02,42.805,6.029,CST-1368DR,5533,7720,14988,0.164,551
2021-06-02T13:58:04,42.805,6.029,CST-1368DR,5533,7720,14987,0.164,551
2021-06-02T14:01:06,42.805,6.029,CST-1368DR,5533,7718,14984,0.165,551
2021-06-02T14:04:07,42.805,6.029,CST-1368DR,5533,7720,14987,0.164,551
2021-06-02T14:07:09,42.805,6.029,CST-1368DR,5533,7719,14986,0.165,551
2021-06-02T14:10:10,42.805,6.029,CST-1368DR,5533,7720,14987,0.164,551
2021-06-02T14:13:12,42.805,6.029,CST-1368DR,5533,7716,14979,0.167,551
2021-06-02T14:16:14,42.805,6.029,CST-1368DR,5533,7719,14986,0.165,551
2021-06-02T14:19:15,42.805,6.029,CST-1368DR,5533,7719,14985,0.165,551
2021-06-02T14:22:17,42.805,6.029,CST-1368DR,5533,7719,14986,0.165,551
2021-06-02T14:25:18,42.805,6.029,CST-1368DR,5533,7717,14981,0.166,551
2021-06-02T14:28:20,42.805,6.029,CST-1368DR,5533,7719,14986,0.165,551
2021-06-02T14:31:21,42.805,6.029,CST-1368DR,5533,7720,14988,0.164,551
2021-06-02T14:34:23,42.805,6.029,CST-1368DR,5533,7720,14987,0.164,551
2021-06-02T14:37:25,42.805,6.029,CST-1368DR,5533,7720,14988,0.164,551
2021-06-02T14:40:26,42.805,6.029,CST-1368DR,5533,7719,14986,0.165,551
2021-06-02T14:43:28,42.805,6.029,CST-1368DR,5533,7720,14988,0.164,551
2021-06-02T14:46:29,42.805,6.029,CST-1368DR,5533,7720,14988,0.164,551
2021-06-02T14:49:31,42.805,6.029,CST-1368DR,5533,7720,14988,0.164,551
2021-06-02T14:52:32,42.805,6.029,CST-1368DR,5533,7720,14987,0.164,551
2021-06-02T14:55:34,42.805,6.029,CST-1368DR,5533,7720,14987,0.164,551
2021-06-02T14:58:36,42.805,6.029,CST-1368DR,5533,7719,14985,0.165,551
2021-06-02T15:01:37,42.805,6.029,CST-1368DR,5533,7720,14987,0.164,551
2021-06-02T15:04:39,42.805,6.029,CST-1368DR,5533,7720,14987,0.164,551
2021-06-02T15:07:40,42.805,6.029,CST-1368DR,5533,7717,14981,0.166,551
2021-06-02T15:10:42,42.805,6.029,CST-1368DR,5533,7720,14988,0.164,551
2021-06-02T15:13:44,42.805,6.029,CST-1368DR,5533,7720,14987,0.164,551
2021-06-02T15:16:45,42.805,6.029,CST-1368DR,5533,7720,14988,0.164,551
2021-06-02T15:19:47,42.805,6.029,CST-1368DR,5533,7720,14988,0.164,551
2021-06-02T15:22:48,42.805,6.029,CST-1368DR,5533,7720,14988,0.164,551
2021-06-02T15:25:50,42.805,6.029,CST-1368DR,5533,7718,14983,0.166,551
2021-06-02T15:28:51,42.805,6.029,CST-1368DR,5533,7719,14986,0.165,551
2021-06-02T15:31:53,42.805,6.029,CST-1368DR,5533,7719,14985,0.165,551
2021-06-02T15:34:55,42.805,6.029,CST-1368DR,5533,7720,14987,0.164,551
2021-06-02T15:37:56,42.805,6.029,CST-1368DR,5533,7718,14983,0.166,551
2021-06-02T15:40:58,42.805,6.029,CST-1368DR,5533,7720,14987,0.164,551
2021-06-02T15:43:59,42.805,6.029,CST-1368DR,5533,7719,14986,0.165,551
2021-06-02T15:47:01,42.805,6.029,CST-1368DR,5533,7720,14988,0.164,551
2021-06-02T15:50:03,42.805,6.029,CST-1368DR,5533,7720,14987,0.164,551
2021-06-02T15:53:04,42.805,6.029,CST-1368DR,5533,7720,14987,0.164,551
2021-06-02T15:56:06,42.805,6.029,CST-1368DR,5533,7719,14985,0.165,551
2021-06-02T15:59:07,42.805,6.029,CST-1368DR,5533,7720,14987,0.164,551
2021-06-02T16:02:09,42.805,6.029,CST-1368DR,5533,7720,14987,0.164,551
2021-06-02T16:05:10,42.805,6.029,CST-1368DR,5533,7720,14987,0.164,551
2021-06-02T16:08:12,42.805,6.029,CST-1368DR,5533,7719,14986,0.165,551
2021-06-02T16:11:14,42.805,6.029,CST-1368DR,5533,7720,14987,0.164,551
2021-06-02T16:14:15,42.805,6.029,CST-1368DR,5533,7719,14985,0.165,551
2021-06-02T16:17:17,42.805,6.029,CST-1368DR,5533,7720,14988,0.164,551
2021-06-02T16:20:18,42.805,6.029,CST-1368DR,5533,7719,14986,0.165,551
2021-06-02T16:23:20,42.805,6.029,CST-1368DR,5533,7719,14985,0.165,551
2021-06-02T16:26:21,42.805,6.029,CST-1368DR,5533,7719,14985,0.165,551
2021-06-02T16:29:23,42.805,6.029,CST-1368DR,5533,7720,14987,0.164,551
2021-06-02T16:32:25,42.805,6.029,CST-1368DR,5533,7719,14986,0.165,551
2021-06-02T16:35:26,42.805,6.029,CST-1368DR,5533,7720,14988,0.164,551
2021-06-02T16:38:28,42.805,6.029,CST-1368DR,5533,7719,14986,0.165,551
2021-06-02T16:41:29,42.805,6.029,CST-1368DR,5533,7720,14987,0.164,551
2021-06-02T16:44:31,42.805,6.029,CST-1368DR,5533,7720,14987,0.164,551
2021-06-02T16:47:33,42.805,6.029,CST-1368DR,5533,7719,14986,0.165,551
2021-06-02T16:50:34,42.805,6.029,CST-1368DR,5533,7720,14987,0.164,551
2021-06-02T16:53:36,42.805,6.029,CST-1368DR,5533,7720,14988,0.164,551